Skip Page Navigation
NASA JPL Caltech
NASA Logo - Jet Propulsion Laboratory + View the NASA Portal
+ Near-Earth Object (NEO) Program
Search JPL
JPL Home Earth Solar System Stars & Galaxies Technology
JPL Solar System Dynamics
BODIES ORBITS EPHEMERIDES TOOLS PHYSICAL DATA DISCOVERY FAQ SITE MAP
JPL Small-Body Database Browser
Search: [ help ]  
173561 (2000 YV137)
Classification: Apollo [NEO, PHA]          SPK-ID: 2173561
Ephemeris | Orbit Diagram | Orbital Elements | Physical Parameters | Discovery Circumstances | Close-Approach Data ]

[ hide orbit diagram ]
Orbit Diagram
Note: Make sure you have Java enabled on your browser to see the applet. This applet is provided as a 3D orbit visualization tool. The applet was implemented using 2-body methods, and hence should not be used for determining accurate long-term trajectories (over several years or decades) or planetary encounter circumstances. For accurate long-term ephemerides, please instead use our Horizons system.
Orbit Viewer

Additional Notes: the orbits shown in the applet are color coded. The planets are white lines, and the asteroid/comet is a blue line. The bright white line indicates the portion of the orbit that is above the ecliptic plane, and the darker portion is below the ecliptic plane. Likewise for the asteroid/comet orbit, the light blue indicates the portion above the ecliptic plane, and the dark blue the portion below the ecliptic plane.

Orbit Viewer applet originally written and kindly provided by Osamu Ajiki (AstroArts), and further modified by Ron Baalke (JPL).


Orbital Elements at Epoch 2456400.5 (2013-Apr-18.0) TDB
Reference: JPL 57 (heliocentric ecliptic J2000)
 Element Value Uncertainty (1-sigma)   Units 
e .3107289047717575 1.1359e-07  
a 1.447698304595102 2.0869e-08 AU
q .997856595968336 1.7202e-07 AU
i 28.0045858316481 1.9827e-05 deg
node 137.2668445781091 2.4807e-05 deg
peri 211.32444690773 4.6424e-05 deg
M 114.2279149837815 4.1279e-05 deg
tp 2456198.623728786118
(2012-Sep-28.12372879)
7.4047e-05 JED
period 636.2320247841031
1.74
1.3757e-05
3.766e-08
d
yr
n .5658313099252764 1.2235e-08 deg/d
Q 1.897540013221869 2.7353e-08 AU
  Orbit Determination Parameters
   # obs. used (total)      201  
   data-arc span      4424 days (12.11 yr)  
   first obs. used      2000-12-01  
   last obs. used      2013-01-11  
   planetary ephem.      DE405  
   SB-pert. ephem.      SB405-CPV-2  
   condition code      0  
   fit RMS      .52611  
   data source      ORB  
   producer      Otto Matic  
   solution date      2013-Apr-29 15:40:12  

Additional Information
 Earth MOID = .0195682 AU 
 T_jup = 4.480 
[ show covariance matrix ]

Ephemeris | Orbit Diagram | Orbital Elements | Physical Parameters | Discovery Circumstances | Close-Approach Data ]

Physical Parameter Table
Parameter Symbol Value Units Sigma Reference Notes
absolute magnitude H 18.077 mag .49214 57 autocmod 2.5c

173561 (2000 YV137)          Discovered 2000-Dec-31 by NEAT at Haleakala (608)
Reference: 20080122/Numbers.arcLast Updated: 2008-01-28

[ show close-approach data ]
Ephemeris | Orbit Diagram | Orbital Elements | Physical Parameters | Discovery Circumstances | Close-Approach Data ]
ABOUT SSD CREDITS/AWARDS PRIVACY/COPYRIGHT GLOSSARY LINKS
FirstGov 2013-May-22 22:20 UT
(server date/time)  
NASA Home Page
Site Manager:   Donald K. Yeomans
Webmaster  Alan B. Chamberlin